Regional Weather Roundup
Issued by NWS

Home | Current Version | Previous Version | Text Only | Print | Product List | Glossary On
Versions: 1 2 3 4 5 6 7 8 9 10 11 12 13 14 15 16 17 18 19 20 21 22 23 24 25 26 27 28 29 30 31 32 33 34 35 36 37 38 39 40 41 42 43 44 45 46 47 48 49 50
000
ASUS43 KMKX 221321
RWRWI

WISCONSIN REGIONAL WEATHER ROUNDUP
NATIONAL WEATHER SERVICE MILWAUKEE/SULLIVAN WI
800 AM CDT MON SEP 22 2014

NOTE: "FAIR" INDICATES FEW OR NO CLOUDS BELOW 12,000 FEET WITH NO
SIGNIFICANT WEATHER AND/OR OBSTRUCTIONS TO VISIBILITY.

WIZ001-002-006>008-014>016-023>028-221400-
NORTHWEST WISCONSIN

CITY           SKY/WX    TMP DP  RH WIND       PRES   REMARKS
SUPERIOR ARPT  SUNNY     46  45  98 SW6       30.20S
ASHLAND        SUNNY     48  46  93 SW7       30.20R
HAYWARD        FOG       43  42  97 S5        30.22S VSB 3/4
SIREN          FOG       45  44  98 CALM      30.24S VSB<1/4
RICE LAKE      SUNNY     42  41  97 CALM      30.25R
LADYSMITH      FOG       40  39  97 CALM      30.24S VSB 1/4
EAU CLAIRE     SUNNY     47  45  93 SW5       30.24S
MENOMONIE      SUNNY     45  44  97 CALM      30.25S
NEW RICHMOND   FOG       45  45 100 CALM      30.25R VSB<1/4
OSCEOLA        FOG       44  44 100 CALM      30.29R VSB<1/4
$$

WIZ003>005-009-010-017-018-221400-
NORTH CENTRAL WISCONSIN

CITY           SKY/WX    TMP DP  RH WIND       PRES   REMARKS
WOODRUFF       SUNNY     44  42  92 CALM      30.20S
RHINELANDER    MOSUNNY   42  40  92 W5        30.21S
EAGLE RIVER    PTSUNNY   41  41 100 CALM      30.20R
LAND O LAKES   CLOUDY    44  43  99 W3        30.20R
PHILLIPS       SUNNY     42  42  99 CALM      30.21S
TOMAHAWK       SUNNY     39  38  97 CALM      30.22R
MEDFORD        SUNNY     43  43  99 CALM      30.22F
MERRILL        SUNNY     39  38  98 CALM      30.22S
$$

WIZ029-030-035-036-043>047-221400-
CENTRAL WISCONSIN

CITY           SKY/WX    TMP DP  RH WIND       PRES   REMARKS
WAUSAU         SUNNY     44  41  89 CALM      30.22S
MOSINEE        SUNNY     45  43  93 W3        30.24S
MARSHFIELD     MOSUNNY   47  44  90 W6        30.23S
STEVENS POINT  SUNNY     38  37  97 CALM      30.25S
WAUPACA        SUNNY     46  44  91 CALM      30.24S
WAUTOMA        SUNNY     43  42  96 CALM      30.25S
WISC RAPIDS    SUNNY     43  42  97 CALM      30.25S
CAMP DOUGLAS   SUNNY     37  37 100 SE2       30.26R
$$

WIZ011>013-019>022-031-037>040-048>050-221400-
NORTHEAST WISCONSIN

CITY           SKY/WX    TMP DP  RH WIND       PRES   REMARKS
ANTIGO         SUNNY     39  39  99 CALM      30.22S
STURGEON BAY   SUNNY     46  41  81 SW6       30.21S
GREEN BAY      SUNNY     42  41  96 CALM      30.23R
MANITOWOC      SUNNY     44  41  89 W5        30.23S
APPLETON       NOT AVBL
CLINTONVILLE   SUNNY     45  41  87 W5        30.23S
OSHKOSH        SUNNY     45  41  86 W6        30.24R
$$

WIZ032>034-041-042-053>061-221400-
SOUTHWEST WISCONSIN

CITY           SKY/WX    TMP DP  RH WIND       PRES   REMARKS
LA CROSSE      FOG       48  47  96 S6        30.27S VSB 1/4
SPARTA         SUNNY     37  37  98 CALM      30.27S
VIROQUA        FAIR      46  46 100 SW5       30.27R
BOSCOBEL       FOG       45  44  97 S5        30.30R VSB<1/4
PRAIRIE DU CHI FOG       48  47  96 CALM      30.29R VSB 1/4
PLATTEVILLE    FAIR      44  43  97 CALM      30.30R
$$

WIZ056-057-062-063-064-067-068-221400-
SOUTH CENTRAL WISCONSIN

CITY           SKY/WX    TMP DP  RH WIND       PRES   REMARKS
BARABOO/DELLS  SUNNY     44  41  92 CALM      30.27R
LONE ROCK      FOG       44  40  85 CALM      30.29R VSB<1/4
WATERTOWN      SUNNY     42  42 100 CALM      30.26S
MADISON        SUNNY     45  41  86 CALM      30.27S
MIDDLETON      FAIR      45  45  99 CALM      30.28R
MONROE         SUNNY     46  43  87 W3        30.27S
JANESVILLE     SUNNY     43  41  93 CALM      30.28R
$$

WIZ051-052-058>065-066-070>072-221400-
SOUTHEAST WISCONSIN

CITY           SKY/WX    TMP DP  RH WIND       PRES   REMARKS
MILWAUKEE      SUNNY     49  41  74 CALM      30.26R
WAUKESHA       SUNNY     43  39  87 W6        30.27R
MILWAUKEE/TIMM SUNNY     43  37  81 CALM      30.26R
RACINE         SUNNY     46  40  79 W6        30.27S
BURLINGTON     SUNNY     39  39 100 CALM      30.26R
KENOSHA        SUNNY     45  41  86 W3        30.26S
FOND DU LAC    SUNNY     44  41  89 SW5       30.25R
SHEBOYGAN      SUNNY     42  41  96 SW3       30.24R
WEST BEND      SUNNY     41  39  93 CALM      30.25S
JUNEAU         SUNNY     41  39  95 CALM      30.27S
$$

LSZ147-162-221400-
LAKE SUPERIOR

STATION/POSITION TIME  TEMP    WIND        PRES    WAVE
                       AIR SEA DIR/SP/G            HT/PER
                 (UTC) (F)     (DEG/KT/KT) (MB)    (FT/S)
W MID LAKE BUOY  1250   49 47  240/  8/ 10 1021.0R   1/ 3
DEVILS ISLAND    1300   51     250/ 14/ 16 1022.0R
PORT WING        1200   47     190/  5/  8 1022.4R
SAXON HARBOR     1200   50     200/ 10/ 13 1021.7S
$$

LMZ867-665-643>646-221400-
LAKE MICHIGAN

STATION/POSITION TIME  TEMP    WIND        PRES    WAVE
                       AIR SEA DIR/SP/G            HT/PER
                 (UTC) (F)     (DEG/KT/KT) (MB)    (FT/S)
N MID LAKE BUOY  1250   49 57  260/ 10/ 14 1022.5R   1/ 3
NORTHPORT PIER   1300   52     240/  2/ 11 1022.7R
KEWAUNEE LAKESHO 1300   45     280/  5/  6 1022.2R
SHEBOYGAN LAKESH 1300   45 53  210/  4/  5 1024.6R
PORT WASHINGTON  1200   43     280/  4/  6 1024.7R
ATWATER BUOY     1300   49     270/  8/ 12 1025.3R
MILWAUKEE LAKESH 1300   48     290/  5/  7   N/A
S MID LAKE BUOY  1250   53 61  340/ 12/ 16 1024.0R   5/ 8
KENOSHA   LAKESH 1300   48     290/  7/  8 1024.4R
$$

TC  - TEMPERATURE IN CELSIUS
VSB - VISIBILITY IN STATUTE MILES
WCI - WIND CHILL INDEX
HX  - HEAT INDEX




USA.gov is the U.S. government's official web portal to all federal, state and local government web resources and services.